Location: Buchdorf
(48.7842°N, 10.8275°E)
Time: 00:29:15
(UTC+00:00)

CARTOSAT-1 - Pass Details

Date: 09 April 2020
Orbit: 616 x 619 km, 97.8° (Epoch: 30 May)

Event Time Altitude Azimuth Distance (km) Brightness Sun altitude
Exits shadow 20:39:30 69° 65° (ENE) 667 3.5 -23.4°
Drops below altitude 10° 20:43:45 10° 351° (N) 1,998 6.9 -23.9°
Sets 20:45:57 0° 349° (N) 2,909 7.9 -24.2°
